Regional Weather Roundup
Issued by NWS Albany, NY

Home | Current Version | Previous Version | Graphics & Text | Print | Product List | Glossary Off
Versions: 1 2 3 4 5 6 7 8 9 10 11 12 13 14 15 16 17 18 19 20 21 22 23 24 25 26 27 28 29 30 31 32 33 34 35 36 37 38 39 40 41 42 43 44 45 46 47 48 49 50

000
ASUS41 KALY 012310
RWRALY

NEW YORK STATE HOURLY WEATHER ROUNDUP
NATIONAL WEATHER SERVICE ALBANY NY
700 PM EDT TUE SEP 01 2015

NOTE: "FAIR" INDICATES FEW OR NO CLOUDS BELOW 12,000 FEET WITH NO
SIGNIFICANT WEATHER AND/OR NO OBSTRUCTIONS TO VISIBILITY.

NYZ032-033-038>043-046>054-057>066-NYZ062>081-020000-
EAST


CITY           SKY/WX    TMP DP  RH WIND       PRES   REMARKS
ALBANY         PTCLDY    82  63  52 NW6       30.01R
GLENS FALLS    CLEAR     79  63  57 S6        30.00S
POUGHKEEPSIE   CLEAR     82  63  52 CALM      30.00S
NEWBURGH       CLEAR     82  61  47 CALM      30.04S
MONTGOMERY     CLEAR     81  65  58 CALM      30.02S
WHITE PLAINS   PTCLDY    80  64  58 S6        30.02S
ISLIP          PTCLDY    77  61  57 S8        30.01S
NEW YORK CITY  PTCLDY    81  63  54 S8        30.01R
CENTRAL PARK   CLEAR     81  63  54 CALM      30.04R
$$

NYZ005>009-017-018-044>046-055-056-020000-
CENTRAL


CITY           SKY/WX    TMP DP  RH WIND       PRES   REMARKS
FULTON         CLEAR     77  69  76 CALM      30.04S
SYRACUSE       CLEAR     76  70  82 NE5       30.04R
ROME           CLEAR     75  67  76 NW5       30.06R
ELMIRA         CLEAR     83  65  54 CALM      30.04R
BINGHAMTON     CLEAR     76  66  71 E3        30.08S
MONTICELLO     CLEAR     77  63  61 W3        30.09S
$$

NYZ026>034-041>043-020000-
NORTH


CITY           SKY/WX    TMP DP  RH WIND       PRES   REMARKS
WATERTOWN      CLEAR     74  66  76 S5        30.03S HAZE
FORT DRUM      NOT AVBL
MASSENA        CLEAR     77  67  71 SW8       30.00S
SARANAC LAKE   CLEAR     77  62  59 W3        30.05S
PLATTSBURGH    CLEAR     74  63  68 CALM      29.98S
$$

NYZ001>004-010>016-019>021-020000-
WEST


CITY           SKY/WX    TMP DP  RH WIND       PRES   REMARKS
NIAGARA FALLS  CLEAR     78  67  68 SW10      30.03S
BUFFALO        PTCLDY    76  68  76 SW12      30.05S
DUNKIRK        CLEAR     76  68  76 SW8       30.06S
JAMESTOWN      CLEAR     75  63  64 W8        30.11S
WELLSVILLE     CLEAR     78  61  55 W7        30.13S
ROCHESTER      CLEAR     77  68  73 N5        30.04S
PENN YAN       CLEAR     79  67  66 CALM      30.06S
$$

             KEY
       WCI = WIND CHILL INDEX
       VSB = VISIBILITY
       HX  = HEAT INDEX
$$


USA.gov is the U.S. government's official web portal to all federal, state and local government web resources and services.